RH
77 75 73 72 71 68 67 63 60 60 57 55 54 53 54 48 43 40 34 29 26 23 21 23 29 33 32 27 20 12 5 2 2 2 2 2 2 2 2 2 2 2 2 2 2 2 2 2 2 2 2 3 3 3 2 2 2 2 2 2 2 2 2 2 2 2 2 2 3 3 3 3 3 3 3 3 3 3 2 2 2 2 2 2 2 2 2 2 2 2 2 2 2 2 2 2 2
68 66 61 56 51 45 44 42 39 41 39 38 36 30 29 27 23 19 13 10 7 5 4 5 8 8 7 5 3 2 2 2 2 2 2 2 2 2 2 2 2 2 2 2 2 2 2 2 2 3 3 3 3 3 2 3 2 2 2 2 2 2 2 2 2 2 2 2 2 2 3 3 3 3 3 3 3 3 2 3 2 2 2 2 2 2 2 2 2 2 2 2 2 2 2 2 2
37 33 28 22 18 15 16 16 15 15 13 16 16 10 8 8 7 5 4 3 2 2 2 2 2 2 2 2 2 2 2 2 2 1 2 1 1 2 2 2 2 2 2 2 2 2 2 3 3 3 3 3 3 2 3 2 2 2 2 2 2 2 2 2 2 2 2 2 2 2 3 3 3 3 3 3 3 3 3 3 2 3 2 2 2 2 2 2 2 2 2 2 2 2 2 2 2
8 6 5 3 3 3 3 3 4 4 2 4 4 3 3 2 2 2 2 2 2 2 2 2 2 2 2 2 2 2 2 2 2 1 2 2 2 2 2 2 2 2 2 2 2 2 3 3 3 3 3 3 3 3 3 2 3 2 2 2 2 2 2 2 2 2 2 2 2 3 3 3 3 3 3 3 3 3 3 3 3 3 2 2 2 2 2 2 2 2 2 2 2 2 2 2 2
2 2 2 2 3 2 3 3 3 3 3 3 3 3 2 2 2 2 2 2 2 2 2 2 2 2 2 2 2 2 2 2 2 2 2 2 2 2 2 2 2 2 2 2 3 3 3 3 3 3 3 3 3 3 3 3 3 2 2 2 2 2 2 2 2 2 3 3 3 3 3 3 3 3 3 3 3 3 3 3 3 3 2 2 2 2 2 2 2 2 2 2 2 2 2 2 2
3 3 3 3 3 3 3 3 3 3 3 3 3 3 3 3 3 3 3 3 3 2 2 2 2 2 2 2 2 2 2 2 2 2 2 2 2 2 2 2 2 3 3 3 3 3 3 3 3 3 3 3 3 3 3 3 2 3 2 2 2 2 2 3 3 3 3 3 3 3 3 3 3 3 3 3 3 3 3 3 3 3 3 3 3 3 2 2 2 2 2 2 3 2 2 2 3
3 3 3 3 3 3 3 3 3 2 2 2 3 2 3 2 2 2 2 3 3 3 3 2 3 2 3 3 3 2 2 2 2 2 2 2 2 2 3 3 3 3 3 3 3 3 3 3 3 3 3 3 3 3 3 3 3 3 3 3 3 3 3 3 3 3 3 3 3 3 3 3 3 3 3 3 3 3 3 3 3 3 3 3 3 3 3 3 3 3 3 3 3 3 3 3 3
3 3 3 4 3 3 4 4 3 3 3 3 3 3 3 2 2 2 2 2 2 2 2 2 2 2 3 3 3 3 2 2 2 2 2 2 3 3 3 3 3 3 3 3 3 3 3 3 3 3 3 3 3 3 3 3 3 3 3 3 3 3 3 3 3 3 4 4 4 4 4 4 4 4 4 4 3 3 3 3 3 3 3 3 3 3 3 3 3 3 3 3 3 3 3 3 3
3 4 4 4 4 4 4 4 4 4 3 3 3 3 3 3 2 2 2 2 2 2 2 2 2 2 3 3 3 3 2 2 2 3 3 3 3 3 3 3 3 3 3 3 3 3 3 3 3 3 3 3 3 3 3 3 3 3 3 3 3 4 4 4 4 4 4 4 4 4 4 4 4 4 4 4 4 4 3 3 3 3 3 3 3 3 3 3 3 3 3 3 3 3 3 3 3
3 3 3 3 4 4 4 4 4 4 4 4 4 3 3 3 3 3 3 2 2 2 2 3 2 3 3 3 3 3 3 3 3 3 3 3 3 3 3 3 3 3 3 3 3 3 3 3 3 3 3 3 3 3 3 4 4 4 4 4 4 4 4 4 5 5 5 4 4 4 4 4 4 4 4 4 4 4 4 3 4 3 3 3 3 3 3 3 3 3 3 3 3 3 3 3 3
3 3 3 3 4 4 4 4 4 4 4 4 4 3 3 3 3 3 3 2 2 3 2 2 3 3 3 3 3 3 3 3 3 3 3 3 3 3 3 3 3 3 3 3 3 3 3 3 3 3 3 4 4 4 4 4 4 5 5 5 5 5 5 5 5 5 5 5 5 4 4 4 4 4 4 4 4 4 4 4 4 4 4 4 4 4 3 3 3 3 3 3 3 3 3 3 3
3 3 3 3 4 4 4 4 4 4 3 4 3 3 3 3 3 3 3 3 2 2 2 3 3 3 3 3 3 3 3 3 3 3 3 3 3 3 3 3 3 3 3 3 3 4 4 4 4 4 4 4 4 5 5 5 5 5 5 5 5 5 5 5 5 5 5 5 5 5 4 4 4 4 4 4 4 4 4 4 4 4 4 4 4 4 4 4 4 4 3 3 3 3 3 3 3
3 3 3 3 4 3 3 3 3 3 3 3 2 2 2 2 2 2 2 2 2 2 2 3 3 3 3 3 3 3 3 3 3 3 3 3 3 3 3 3 3 4 4 4 4 4 4 4 5 5 5 5 5 6 6 6 6 6 6 6 6 6 5 5 5 5 5 5 5 5 5 5 5 5 5 4 4 4 4 4 4 4 4 4 4 4 4 4 4 4 4 3 3 3 3 3 3
3 3 3 3 3 3 3 3 3 2 2 2 2 2 2 2 2 2 2 2 2 2 2 2 3 3 3 3 3 3 3 3 3 3 4 4 4 4 4 4 4 4 4 4 5 5 5 5 5 5 6 6 6 6 6 6 6 6 6 6 6 6 5 6 6 5 6 6 6 6 6 5 5 5 5 5 5 4 4 4 4 4 4 4 4 4 4 4 4 4 4 4 3 3 3 3 3
3 3 3 3 3 3 3 3 2 2 2 2 2 2 2 2 2 2 2 2 2 2 3 3 3 3 3 3 3 4 4 4 4 4 4 4 5 5 5 5 5 5 5 6 6 6 6 6 6 6 6 6 6 6 6 7 6 6 6 6 6 6 6 6 6 6 6 6 6 6 6 6 5 5 5 5 5 5 5 4 4 4 4 4 4 4 4 4 4 4 4 4 3 3 3 3 3
3 4 3 3 3 3 3 3 3 3 3 3 3 3 3 3 2 3 3 3 3 4 3 4 4 4 4 4 5 5 5 5 5 6 6 5 6 6 6 6 6 6 6 6 6 6 6 6 6 6 6 7 7 7 7 7 7 7 7 7 7 7 7 7 7 7 7 7 6 6 6 6 5 5 5 5 5 5 5 4 5 4 4 4 4 4 4 4 4 4 4 4 4 4 4 3 3
4 4 4 4 4 4 4 4 4 3 4 4 4 4 4 4 4 4 4 5 5 5 5 5 5 5 5 6 6 6 6 7 7 7 7 7 7 7 7 6 7 7 6 7 6 6 6 6 6 6 7 7 8 8 8 8 8 8 8 8 8 8 7 7 7 7 7 6 6 6 6 6 5 5 5 5 5 5 5 5 5 5 5 4 4 4 4 4 4 4 4 4 4 4 4 4 5
4 4 4 4 4 5 4 4 4 4 4 4 4 5 5 5 5 6 6 6 7 7 6 6 6 6 7 7 7 7 7 7 7 7 7 7 7 7 7 6 6 6 6 6 6 7 6 6 6 6 7 8 8 8 8 8 9 9 8 8 8 8 8 7 7 7 7 6 6 6 6 6 5 5 5 5 5 5 5 5 5 5 5 5 5 5 5 5 5 5 5 5 6 6 6 6 6
4 5 5 5 5 5 5 5 5 5 5 5 5 5 5 5 6 7 7 7 7 7 7 6 6 7 7 7 7 7 7 7 7 7 7 7 7 7 6 6 6 6 6 6 6 6 6 6 7 7 8 8 8 8 9 9 8 8 8 8 8 8 8 7 7 7 7 6 6 6 6 6 6 6 6 6 6 6 6 6 6 6 5 6 6 6 6 6 7 7 7 7 7 8 9 10 10
5 5 5 5 5 5 5 5 5 5 5 5 5 5 6 6 6 7 7 8 8 7 6 6 7 7 7 7 7 7 7 7 7 7 7 7 7 7 7 6 6 6 6 6 6 6 6 6 7 7 8 8 9 9 8 8 8 8 8 8 8 8 7 7 7 7 7 7 6 6 6 6 6 7 6 6 6 6 7 6 6 7 7 7 7 8 8 8 9 10 11 11 12 13 13 14 14
5 5 6 5 5 6 6 5 5 5 5 5 6 7 7 7 7 8 8 8 8 7 7 7 8 8 8 8 8 8 8 8 8 8 8 8 7 7 7 7 6 6 6 6 6 6 6 7 7 7 8 9 9 9 9 9 8 8 8 8 8 7 7 7 7 7 7 7 7 7 7 7 8 8 8 8 8 8 8 8 8 9 9 9 9 10 11 12 13 15 17 19 20 21 21 20 19
5 5 5 5 6 6 6 6 6 6 6 6 7 7 8 8 8 8 9 9 9 8 8 8 8 8 8 8 9 9 9 9 9 9 9 8 8 8 7 7 7 6 6 6 6 6 6 7 7 8 9 9 9 9 9 9 9 8 8 8 8 8 8 8 8 8 8 8 8 8 9 9 10 10 10 10 9 10 10 11 11 11 12 13 14 14 15 17 19 22 26 29 30 30 30 28 26
5 5 5 5 5 6 6 6 6 6 6 7 7 7 8 8 8 9 10 9 9 8 9 9 9 9 9 9 9 9 9 9 10 9 9 9 9 8 8 7 7 6 6 6 6 7 7 7 8 9 9 10 9 9 9 9 8 8 8 8 8 9 9 9 9 9 9 10 10 10 11 11 11 12 12 12 12 13 14 15 16 17 18 19 20 20 22 24 27 31 35 38 39 39 38 36 33
4 5 5 5 5 5 6 6 6 6 7 7 7 8 8 8 9 10 11 10 9 9 9 10 10 9 9 9 9 9 9 9 10 10 9 9 9 8 8 7 7 7 7 7 7 7 8 8 8 9 9 9 9 9 9 8 8 9 9 9 10 10 10 10 11 11 11 12 12 12 13 13 14 15 15 16 16 18 18 20 22 23 25 26 26 28 30 34 37 39 42 45 46 47 46 44 41
4 4 5 5 5 5 6 6 6 6 7 7 8 8 8 8 9 10 12 11 9 9 10 10 10 9 9 9 9 9 10 10 10 9 9 9 8 8 8 8 8 7 8 7 8 8 8 9 9 9 9 9 9 9 9 9 9 10 10 10 11 11 12 12 12 13 13 13 14 14 15 16 18 19 20 20 21 23 25 26 29 30 32 32 33 36 38 41 45 46 47 49 50 52 53 52 48
4 4 5 5 5 5 6 6 6 7 7 7 8 9 8 9 9 11 12 11 10 11 10 10 9 9 9 9 9 10 10 10 9 9 9 9 9 9 8 8 8 8 9 8 8 9 9 9 9 9 9 9 9 10 10 10 11 11 11 12 12 13 14 14 15 15 16 16 17 18 19 20 21 23 24 25 26 29 32 34 37 38 40 40 41 45 46 46 49 51 52 53 54 56 57 57 54
4 4 5 5 5 6 6 7 7 8 8 8 9 9 9 9 10 12 12 11 11 11 10 10 9 9 9 10 10 10 9 9 9 9 9 9 9 9 9 9 9 9 9 9 9 9 9 9 9 10 10 10 10 11 11 12 12 13 14 15 15 16 16 17 17 18 18 19 19 20 21 22 24 26 28 30 32 36 39 42 44 45 48 49 49 52 52 51 51 54 55 56 58 60 59 58 57
5 5 5 6 6 6 7 8 8 8 8 9 10 10 10 10 11 12 12 11 11 11 10 10 10 10 10 10 10 9 9 9 9 9 9 9 10 10 10 10 10 10 10 10 10 10 10 10 10 11 11 11 12 12 13 14 15 16 17 18 18 18 19 19 20 20 21 21 22 24 25 27 28 31 33 35 38 40 42 45 48 50 53 56 57 58 58 57 55 56 58 58 60 61 60 60 59
5 5 6 7 7 8 9 9 10 10 11 12 12 12 12 12 12 12 12 12 11 11 11 11 11 11 10 10 10 9 9 9 9 9 9 10 10 11 11 11 11 10 10 10 11 11 11 12 12 12 13 14 14 15 16 17 18 19 20 20 20 21 22 22 23 24 25 26 28 30 32 34 36 38 40 42 44 47 50 54 57 60 62 64 65 64 63 61 59 60 61 59 59 61 64 65 61
6 6 6 7 9 9 10 11 12 13 14 14 14 13 13 13 13 13 13 13 12 12 12 12 12 11 11 10 10 10 9 9 9 10 11 11 11 11 11 11 12 11 12 12 13 14 14 15 15 16 16 17 17 18 19 20 21 21 22 22 23 24 26 27 29 31 33 36 38 41 43 46 48 49 52 55 57 60 63 66 68 69 69 68 67 65 63 61 60 61 61 57 56 58 63 66 63
7 8 8 8 10 11 12 13 14 15 15 14 14 14 13 14 14 14 14 14 13 13 12 12 12 12 11 11 10 10 10 10 10 11 11 12 12 12 13 14 14 15 16 16 17 18 18 18 19 19 20 20 20 21 23 23 23 24 24 26 27 30 33 36 39 42 46 49 52 54 56 58 60 61 63 66 68 68 69 70 70 68 66 64 63 61 61 60 58 59 57 52 50 51 53 58 58
9 10 10 11 12 13 15 15 15 15 15 15 15 15 15 15 15 15 15 14 13 13 12 12 11 11 11 10 10 10 11 11 11 12 12 13 14 15 16 17 18 19 20 21 21 21 22 22 23 23 24 24 26 27 28 28 29 29 31 33 37 41 44 48 52 56 60 64 66 68 69 70 71 71 71 71 72 70 68 68 67 63 60 60 60 60 59 58 55 55 53 45 41 42 42 44 48
15 15 15 17 17 16 16 16 16 16 16 16 16 17 16 15 15 15 14 13 12 12 12 11 11 11 11 11 11 12 12 13 13 14 15 16 17 19 20 21 22 23 23 24 24 25 26 27 27 28 29 31 33 34 35 35 36 38 42 46 50 54 58 63 68 72 76 79 81 81 80 78 76 74 72 70 69 68 65 65 64 61 58 57 57 58 57 54 49 48 48 41 34 34 34 33 36
24 23 22 22 21 20 19 17 18 18 18 19 19 20 18 16 16 16 14 13 13 13 13 13 12 12 13 13 13 14 14 16 17 18 18 19 21 22 24 25 26 26 26 27 28 29 30 32 34 35 37 40 41 42 42 44 46 50 55 59 63 68 73 78 82 85 87 88 87 85 82 79 76 73 69 66 65 63 61 59 57 54 50 48 47 47 46 44 40 37 38 36 31 29 30 30 28
36 34 34 35 34 32 27 23 23 23 23 23 23 22 20 16 16 15 14 13 13 14 14 14 14 14 15 15 16 17 17 19 20 20 22 23 25 26 27 28 29 29 30 31 32 34 36 39 41 42 45 47 48 49 50 54 58 62 66 69 72 75 79 82 83 85 86 84 84 82 80 78 77 75 71 66 61 56 52 48 46 44 41 39 37 37 36 35 33 32 31 32 32 32 34 36 33
47 46 47 46 44 39 31 28 28 26 25 25 22 20 18 15 14 13 13 14 13 14 15 16 17 17 18 18 19 20 21 22 24 25 26 27 29 30 31 32 33 34 35 36 38 40 43 45 47 49 51 53 54 55 57 61 66 70 74 78 80 80 81 82 82 81 81 80 79 78 78 79 79 77 72 65 59 54 51 49 49 49 48 46 44 43 43 42 40 39 39 40 43 46 48 50 47
48 46 44 40 38 35 30 28 26 24 23 21 18 16 15 13 12 13 14 15 15 15 17 18 19 20 21 22 23 24 25 26 27 28 29 30 31 33 34 35 36 37 39 40 42 44 47 51 53 55 56 57 58 59 61 65 70 76 81 84 87 86 84 83 82 81 80 79 78 78 80 83 84 82 79 75 73 70 68 68 68 69 68 66 64 63 62 61 59 58 57 56 57 58 59 60 56
39 36 34 31 29 28 25 22 19 18 17 15 14 13 12 12 12 13 14 16 17 18 20 21 22 23 24 25 26 26 27 28 29 30 31 33 34 35 36 37 39 40 42 43 45 48 51 55 58 60 61 62 63 65 66 69 72 77 81 84 87 88 87 87 88 88 89 89 89 90 92 93 94 94 93 93 92 90 87 84 83 81 80 78 76 75 73 72 71 68 66 64 62 60 61 63 59
28 26 25 22 20 18 17 15 14 13 13 12 12 12 13 13 14 15 16 18 20 21 22 22 23 24 24 25 27 28 30 31 33 35 37 38 40 42 44 46 48 50 52 54 56 58 61 64 66 68 69 69 70 72 73 74 77 79 81 84 88 93 95 96 97 98 98 99 99 99 100 100 101 100 100 100 98 96 93 92 91 91 90 88 85 83 80 78 76 74 71 67 65 63 62 64 61
19 17 16 15 14 13 12 12 12 12 13 13 13 14 14 15 15 16 18 19 20 21 21 22 22 23 24 25 27 29 31 33 36 39 42 45 48 51 54 57 61 65 68 71 73 75 76 77 78 79 80 80 82 83 85 86 88 89 91 93 96 99 101 101 101 101 100 101 101 101 102 101 100 100 99 98 97 95 94 93 93 93 92 89 86 83 80 78 75 73 71 68 65 63 62 63 63
14 13 13 13 13 13 13 13 13 14 14 14 15 15 13 14 15 16 18 18 19 20 21 22 23 24 25 27 28 30 32 35 38 41 44 48 51 56 60 64 69 73 76 79 83 86 88 90 92 93 94 95 96 97 98 99 99 99 100 101 101 101 101 100 100 100 100 101 101 101 102 101 100 98 97 95 93 92 91 90 88 86 84 81 77 74 70 67 64 62 60 59 57 55 55 55 56
13 13 14 14 14 14 14 14 13 13 13 14 16 15 13 13 15 17 18 19 20 23 24 25 27 28 30 32 34 36 37 39 41 43 46 49 53 58 62 67 71 75 78 83 88 93 97 99 100 100 101 101 101 101 100 100 100 101 101 100 100 101 101 101 101 101 101 101 102 102 102 102 102 101 99 97 96 93 91 88 85 81 77 72 67 63 59 55 52 50 48 46 45 44 44 43 44
14 14 14 13 13 13 14 14 14 14 14 15 17 18 15 15 17 20 22 24 26 29 30 32 34 36 38 40 42 43 45 47 48 50 51 54 59 64 69 73 77 82 86 90 94 97 100 101 101 101 100 100 100 100 99 98 99 99 100 100 100 100 99 99 100 100 99 97 96 97 97 98 97 95 93 90 87 84 80 76 73 69 65 61 56 52 49 46 43 41 38 36 35 34 33 33 33
12 13 13 13 14 14 15 16 16 16 17 19 21 21 20 20 23 26 29 31 34 35 37 39 41 43 45 47 49 50 52 54 56 59 61 65 71 75 80 84 86 89 91 92 94 96 97 99 99 100 100 99 98 97 95 93 92 91 91 92 92 91 90 90 90 90 89 87 85 85 85 85 83 79 74 69 66 63 60 58 56 54 51 48 46 43 40 38 36 34 33 31 30 30 30 29 28
13 14 14 15 15 16 17 18 20 21 22 24 26 27 28 29 30 34 36 37 39 41 43 46 47 49 52 54 57 59 61 64 66 69 72 76 81 85 87 89 89 89 89 89 89 89 90 90 90 89 88 87 86 84 83 81 81 79 76 76 78 78 79 81 81 81 82 81 80 78 75 71 68 65 60 56 53 51 49 47 44 43 41 39 38 36 34 33 31 30 30 29 29 29 30 30 29
15 16 16 18 19 20 21 23 25 26 27 29 31 33 34 33 34 39 41 41 44 48 50 52 54 57 61 63 66 68 71 73 75 77 80 83 86 88 88 88 88 86 84 83 81 79 78 76 75 74 73 76 77 75 74 73 73 72 69 69 71 71 73 76 80 83 82 77 72 68 64 62 61 60 59 56 52 48 46 42 39 37 36 35 33 32 31 30 30 29 29 29 29 29 29 30 30
19 20 21 22 24 24 25 27 28 29 30 31 32 34 36 35 37 42 46 48 52 56 59 61 63 67 70 72 74 76 78 80 80 81 81 83 83 82 82 81 81 80 77 75 73 71 69 69 69 69 71 74 76 74 70 70 73 75 74 73 74 74 74 75 76 76 72 65 60 56 55 56 57 55 54 52 48 44 41 38 36 34 33 32 31 30 30 29 29 29 28 28 28 28 28 28 29
23 23 23 22 23 22 23 25 25 26 27 27 30 34 38 42 46 50 55 60 63 65 67 70 72 74 75 76 77 78 79 79 79 78 77 76 75 75 74 73 73 71 69 66 64 63 64 64 65 66 67 70 72 73 73 74 77 80 79 76 72 69 65 60 57 54 50 48 48 47 46 46 45 45 43 40 37 33 30 28 26 26 25 24 24 24 24 24 24 24 23 23 22 22 22 22 23
22 21 20 18 18 18 18 19 18 20 23 27 34 40 44 53 60 64 67 71 70 70 72 73 73 74 75 76 76 77 76 74 72 68 65 61 59 57 56 54 52 49 46 44 44 45 47 47 47 50 54 57 59 61 64 65 65 62 58 53 48 44 40 37 34 32 30 29 28 28 27 27 26 26 24 22 21 19 17 17 16 16 15 15 15 14 14 14 14 14 14 14 14 13 13 14 14
17 17 16 16 16 15 14 15 15 19 25 34 45 52 57 65 71 75 76 74 71 71 71 71 71 71 70 67 64 59 54 48 42 36 32 28 27 26 26 25 23 21 20 21 21 23 25 26 27 31 35 34 34 36 38 39 40 40 39 37 34 31 28 26 25 24 21 18 16 14 13 13 13 13 14 15 15 15 15 15 15 14 13 12 12 11 11 10 10 9 9 9 8 8 8 8 8
14 15 15 16 18 18 20 23 27 31 35 44 54 60 64 67 69 73 73 69 67 66 64 60 55 49 42 36 30 25 19 15 12 11 10 9 9 10 10 10 10 10 11 12 13 15 17 19 21 24 25 22 21 24 26 30 34 40 43 42 39 33 28 25 23 22 21 19 17 15 15 15 15 15 16 16 17 17 17 16 16 15 14 13 12 12 11 11 10 10 9 9 8 8 8 7 6
14 14 16 20 25 30 37 43 48 48 44 46 52 56 60 61 62 64 61 55 51 45 38 31 24 18 14 12 10 8 8 8 8 8 8 8 9 9 9 10 10 11 11 12 13 15 17 20 22 23 22 21 22 25 29 34 38 40 41 38 34 29 25 23 22 21 20 20 19 19 19 19 18 18 18 18 18 18 18 17 17 16 15 15 14 13 13 12 12 11 11 11 10 10 9 8 7
18 22 27 34 40 45 51 54 55 53 46 42 45 49 53 52 46 42 37 32 26 20 16 12 10 8 8 8 9 9 9 10 10 10 10 10 10 10 10 10 10 11 12 13 14 16 19 22 24 24 23 23 24 25 25 27 28 29 30 29 28 28 27 26 27 27 27 27 26 25 24 23 22 21 21 21 21 21 21 21 21 21 20 19 18 17 16 15 14 14 13 13 13 13 12 11 10
34 39 43 47 48 51 55 54 51 49 44 39 38 39 38 31 23 21 20 17 14 11 10 9 9 9 10 10 11 11 11 11 11 10 10 9 8 8 9 10 13 14 14 16 18 19 21 21 22 23 23 23 23 22 23 24 26 27 29 30 32 33 34 35 35 36 37 39 39 38 38 38 36 35 34 33 32 32 33 33 33 33 33 33 31 29 27 24 21 19 18 18 19 18 16 15 15
42 44 46 47 46 48 52 52 47 42 38 33 30 28 23 16 13 14 14 13 11 10 10 10 11 11 11 11 11 11 10 9 9 9 8 8 8 9 11 14 16 17 18 20 20 19 19 19 22 25 28 29 29 30 32 33 35 36 37 39 40 43 45 48 50 51 54 56 58 59 60 60 59 57 56 54 52 51 51 51 52 52 53 53 53 51 49 45 40 35 32 31 31 31 28 26 26
40 43 46 47 47 46 46 44 38 31 26 22 21 21 17 12 13 14 12 12 11 11 12 13 12 12 11 10 10 9 9 8 9 9 8 9 9 11 13 15 16 18 19 19 19 20 22 26 30 34 37 39 42 44 47 50 53 56 59 61 63 66 68 70 72 73 74 75 76 76 75 74 72 71 70 68 67 67 66 66 67 68 70 71 72 72 70 68 65 61 57 54 52 50 47 44 44
34 38 43 45 44 41 37 31 24 19 16 13 15 16 15 13 14 13 12 13 13 13 13 12 11 10 9 9 9 8 9 9 9 9 9 10 12 13 15 16 18 21 22 24 26 29 33 38 43 48 53 58 63 68 73 78 81 84 86 88 88 88 88 88 89 89 89 87 86 84 82 79 77 75 74 73 73 72 72 71 71 72 74 75 76 78 79 79 78 78 77 75 72 70 67 64 63
36 38 38 38 35 32 29 23 17 15 14 12 12 14 14 13 14 14 14 14 14 13 12 10 9 9 8 9 9 9 9 9 10 11 11 13 15 17 19 23 26 30 33 36 41 46 53 60 68 74 79 84 89 92 95 97 99 99 99 98 97 97 97 97 97 98 98 95 93 91 89 85 82 80 78 77 76 76 75 74 73 73 74 74 75 75 76 77 78 79 80 80 79 78 76 75 73
Wind_Speed
11 12 12 12 12 12 12 13 12 12 12 12 14 15 17 18 17 17 17 16 17 19 19 19 20 21 21 21 21 21 21 20 19 19 18 18 17 17 16 15 16 16 17 17 18 18 19 20 20 19 19 20 20 20 21 21 22 22 23 23 24 24 25 26 26 27 28 29 30 31 31 32 32 33 33 33 34 34 34 34 34 34 34 34 34 34 34 35 35 35 35 35 35 35 34 34 35
11 11 11 11 11 11 11 12 11 11 12 12 14 16 16 16 16 16 16 16 17 17 17 17 18 18 19 19 20 20 20 20 20 19 19 18 17 16 16 16 17 18 18 19 20 20 21 21 20 20 21 21 22 22 23 24 24 25 25 26 26 27 27 28 29 30 31 31 32 33 34 34 35 35 35 36 36 36 36 36 36 36 36 36 36 36 36 36 37 37 38 38 37 37 37 37 37
10 9 9 9 9 9 9 9 9 9 10 11 13 14 14 14 15 15 15 17 17 16 16 16 17 18 18 19 20 20 21 21 20 20 19 19 18 17 18 18 19 20 21 21 21 22 22 22 22 22 23 23 24 25 26 26 27 27 28 28 28 29 30 30 31 32 33 34 34 35 35 36 37 37 37 38 38 38 38 37 37 38 38 38 38 38 39 39 39 39 40 40 40 40 40 40 40
7 6 6 6 6 6 6 7 7 8 9 10 12 12 13 14 15 15 16 17 17 18 18 17 18 19 19 19 20 21 21 21 20 20 20 20 19 19 20 20 21 22 22 22 23 23 23 23 24 24 25 26 27 27 28 28 29 30 30 30 31 32 32 33 34 35 35 36 36 36 37 37 38 38 38 39 39 39 39 39 39 39 40 40 40 41 41 41 41 42 42 42 42 42 43 43 43
6 5 5 5 5 6 6 7 8 9 11 12 13 14 14 15 16 17 17 18 18 19 19 19 19 19 19 19 20 21 21 21 21 22 22 21 21 21 22 22 23 23 23 23 24 24 25 25 26 27 28 28 29 30 30 31 31 32 33 33 34 35 35 36 37 37 37 38 38 38 38 39 39 39 39 39 40 40 40 40 41 41 41 42 42 42 43 43 43 44 44 44 44 45 45 45 46
5 5 5 5 6 7 7 8 9 10 11 12 14 15 15 17 18 18 19 20 20 20 20 20 20 20 19 20 22 22 23 23 23 23 23 23 23 23 23 23 23 24 24 25 25 26 27 28 29 30 30 31 31 32 33 33 34 34 35 36 37 37 38 38 39 39 39 39 39 39 40 40 40 40 40 40 41 41 41 41 42 42 43 44 44 44 45 45 45 46 46 46 47 47 47 48 48
4 4 4 5 5 6 7 8 9 10 10 12 13 14 15 17 17 18 19 20 20 21 20 20 19 19 20 22 23 24 24 24 24 24 24 23 23 24 24 24 25 25 26 26 27 28 29 30 31 32 33 33 34 35 35 36 36 37 38 38 39 40 40 40 41 41 41 41 41 41 41 41 41 41 42 42 42 42 43 43 44 44 45 45 46 46 47 47 48 48 48 49 49 49 49 50 50
3 3 4 4 5 6 6 8 9 10 11 11 12 14 14 15 16 16 17 17 18 19 18 17 18 18 20 22 23 24 25 25 24 24 23 23 24 24 25 26 26 27 28 29 30 31 32 33 34 34 35 36 36 37 38 38 39 40 40 41 41 41 41 42 42 42 42 42 42 42 42 42 43 43 43 43 44 44 45 45 46 46 47 47 48 48 48 49 50 50 51 51 52 52 52 52 52
3 4 5 5 6 7 8 9 10 11 13 12 13 14 15 16 16 16 16 17 17 17 17 16 17 17 19 21 22 24 24 24 24 23 24 25 25 26 27 28 29 30 31 32 32 33 34 35 36 37 37 38 39 40 40 41 41 42 42 42 42 42 43 43 43 43 43 44 44 44 44 44 44 44 44 45 45 46 46 47 47 48 48 49 49 50 50 51 52 52 53 54 54 54 55 55 55
5 6 7 7 8 9 10 11 12 13 14 13 14 15 16 17 17 17 18 18 18 18 18 18 18 18 20 22 24 24 24 24 24 25 26 27 28 28 30 31 32 33 33 34 35 36 36 37 38 39 40 40 41 41 42 42 42 43 43 43 43 44 44 44 44 45 45 45 45 45 45 45 45 46 46 46 47 47 48 48 49 49 50 50 51 52 52 53 54 54 55 56 56 56 57 57 57
7 8 9 9 10 11 12 13 14 15 15 15 16 16 16 17 18 19 20 19 20 20 20 20 19 20 22 24 26 26 26 26 26 27 28 29 30 31 32 33 34 35 36 37 37 38 39 39 40 41 41 42 42 42 43 43 43 43 44 44 44 45 45 45 45 46 46 46 46 46 46 46 47 47 47 48 49 49 50 50 51 51 52 53 53 54 55 55 56 56 57 57 58 58 59 59 59
9 10 10 10 11 12 13 14 16 16 16 17 18 18 17 18 20 21 21 21 22 23 22 21 21 23 24 25 28 29 28 28 29 30 30 32 33 34 34 35 36 37 38 39 39 40 40 41 41 42 42 43 43 43 43 43 44 44 44 45 45 45 46 46 46 46 47 47 47 47 48 48 48 49 49 50 51 52 52 53 53 54 54 55 56 56 57 57 58 58 59 59 60 60 61 61 61
11 12 12 12 13 14 15 15 17 17 18 19 19 18 18 19 20 21 21 21 23 23 23 24 24 25 25 27 29 30 30 30 31 31 32 33 34 35 36 37 38 39 39 40 40 41 41 41 42 42 43 43 43 43 43 44 44 44 45 45 46 46 47 47 47 48 48 48 48 49 49 49 50 51 52 52 53 54 54 55 55 56 57 57 58 58 59 59 60 60 61 61 62 62 63 63 63
13 13 13 13 15 16 16 16 17 17 18 20 19 18 19 20 21 21 21 21 22 22 23 24 25 26 26 27 29 30 31 32 32 32 33 34 35 36 37 38 39 39 40 40 40 41 41 41 42 42 42 43 43 44 44 44 45 45 46 46 47 47 48 48 48 49 49 49 50 50 50 51 52 53 54 54 55 56 56 57 58 58 59 59 60 60 61 61 62 62 63 63 64 64 64 64 64
14 14 14 14 16 17 17 17 17 17 18 20 18 18 19 20 21 21 21 21 21 22 23 24 25 26 27 27 29 30 31 32 32 33 34 35 35 36 37 38 39 39 39 40 40 40 41 41 42 42 43 43 44 44 45 45 46 46 47 47 48 48 49 49 49 50 50 50 51 52 52 53 54 55 55 56 57 57 58 59 59 60 61 61 62 62 62 63 63 64 65 65 65 65 65 65 65
15 15 15 15 17 18 18 18 18 17 19 20 18 19 19 20 20 20 21 21 22 23 23 24 26 27 26 27 28 29 30 31 32 33 34 35 36 36 37 38 38 39 39 40 40 41 42 42 43 43 44 44 44 45 46 46 47 47 48 48 49 49 50 50 51 51 52 52 53 54 55 55 56 57 57 58 58 59 60 60 61 62 62 63 63 64 64 65 65 65 66 66 66 66 66 65 66
16 16 16 16 17 18 19 19 19 19 19 20 20 19 20 20 21 20 21 22 23 24 25 26 27 27 27 27 29 30 31 32 33 34 35 36 36 37 38 39 39 40 40 41 42 42 43 43 44 44 45 45 45 46 47 47 48 48 49 50 50 51 51 52 52 53 54 55 55 56 57 57 58 58 59 59 60 61 61 62 63 63 64 64 65 65 66 66 66 66 66 66 66 66 65 65 65
17 16 16 17 18 18 20 20 20 20 20 21 21 21 21 21 21 21 22 23 24 25 27 29 28 27 28 29 31 32 32 33 34 35 36 37 38 39 40 41 41 42 42 43 43 44 45 45 46 45 46 46 47 48 48 49 50 50 51 52 52 53 54 54 55 55 56 57 57 58 58 59 59 60 60 61 62 62 63 64 64 65 65 65 66 66 66 66 66 66 66 66 65 65 64 64 63
17 17 17 18 18 19 20 21 21 22 22 22 22 22 22 22 23 23 23 24 26 27 30 31 29 28 29 31 33 33 34 35 36 37 38 39 40 41 42 43 43 44 44 45 45 46 46 46 46 46 47 48 49 49 50 51 52 53 53 54 55 55 56 57 57 58 58 59 59 60 60 60 61 61 62 62 63 64 65 65 65 66 66 66 66 66 66 66 66 65 65 65 64 63 62 61 60
18 19 19 20 20 20 21 22 22 23 23 23 23 23 23 24 24 24 25 25 27 30 32 31 29 30 31 33 34 35 36 37 37 38 39 40 41 42 43 44 45 45 46 46 47 47 48 48 48 48 49 50 50 51 52 53 54 55 56 56 57 57 58 59 59 59 60 60 60 61 61 62 62 62 63 64 65 65 66 66 66 66 66 66 66 66 65 65 64 63 62 62 61 60 59 58 57
19 20 20 21 21 21 22 23 24 24 25 24 23 24 25 26 26 26 26 26 29 33 33 31 31 33 34 35 36 37 38 38 39 40 41 42 43 44 45 46 47 47 48 48 49 49 49 49 50 50 51 52 53 54 55 56 56 57 58 58 59 59 59 60 60 60 61 61 61 62 62 62 63 63 64 65 65 66 66 66 66 66 66 66 65 65 64 63 61 60 59 58 58 57 56 56 54
20 21 22 22 22 23 24 25 25 26 26 25 25 25 26 28 28 28 28 29 32 34 34 33 34 35 36 37 38 39 40 40 41 42 43 44 44 45 46 48 49 49 50 50 51 51 51 51 52 52 53 54 55 56 57 58 58 59 59 59 60 60 60 60 61 61 61 61 62 62 62 63 63 64 65 65 66 66 66 66 66 66 65 65 64 64 63 61 59 57 56 55 55 54 54 54 53
22 23 24 24 24 25 25 26 27 27 28 27 27 28 29 29 29 29 30 32 35 36 36 36 37 38 39 39 40 41 42 42 43 44 44 45 46 47 48 49 50 51 52 52 53 53 53 53 54 54 55 56 57 58 59 60 60 60 60 60 60 60 60 61 61 61 61 61 62 62 63 63 64 64 65 65 65 65 65 65 65 65 64 64 63 62 60 59 57 55 54 54 53 53 53 53 53
23 24 25 26 26 26 27 28 29 29 29 30 30 30 31 31 31 31 32 35 38 38 38 38 39 40 41 42 43 43 44 44 44 45 46 47 48 49 50 51 52 52 53 54 55 55 55 56 56 57 58 59 60 60 61 61 61 61 60 60 60 60 60 61 61 61 61 62 62 63 63 63 64 64 64 64 64 64 64 64 64 64 63 62 61 60 59 57 56 55 54 54 53 53 53 53 53
24 25 26 27 27 28 29 30 30 31 31 31 31 32 33 33 33 33 33 37 40 40 40 41 42 43 43 44 44 45 45 45 45 46 47 48 49 50 51 52 53 54 55 55 56 57 57 58 58 59 60 61 61 61 61 61 61 61 60 60 61 60 61 61 61 61 62 62 62 62 62 63 63 63 63 63 63 64 64 63 63 63 62 61 61 59 58 57 57 56 55 54 53 53 53 53 53
25 26 27 28 29 29 30 31 31 32 32 33 33 33 34 35 36 35 36 40 41 41 42 43 44 44 44 45 45 46 46 46 47 48 49 50 51 51 52 53 54 55 56 57 58 58 59 59 60 61 61 61 61 61 61 61 61 61 61 60 60 61 61 61 61 62 62 62 62 62 62 62 62 62 63 63 63 63 63 62 62 62 62 61 60 60 59 58 58 58 57 56 54 53 53 53 52
27 28 29 29 30 30 31 32 32 33 33 34 34 34 36 37 37 38 39 41 41 42 44 45 46 46 45 46 46 47 47 48 49 50 51 52 53 53 54 55 55 56 57 58 58 59 59 60 61 61 61 61 61 61 60 60 60 60 60 60 60 61 61 61 61 61 61 62 62 62 62 62 62 62 62 62 62 62 62 62 62 62 62 61 61 60 60 60 59 59 58 56 55 53 53 53 52
29 30 30 30 31 31 31 32 33 34 34 34 35 36 37 38 39 40 42 42 42 44 45 46 46 46 46 47 47 48 49 50 51 52 53 54 54 54 55 55 56 57 58 58 58 59 59 60 60 60 60 60 60 59 59 59 59 59 59 60 60 61 61 61 61 61 61 61 61 61 61 61 62 62 62 62 62 62 62 62 62 62 62 62 61 61 61 61 60 60 59 57 55 53 52 52 52
31 31 31 31 32 32 32 33 34 35 35 36 37 38 39 39 41 42 43 43 44 46 47 47 47 47 47 48 49 50 51 52 53 54 54 55 55 55 55 55 56 57 58 58 58 58 59 59 59 59 59 58 58 58 58 58 58 59 59 60 60 61 61 61 61 61 61 61 61 61 61 61 61 61 61 62 62 62 62 63 63 63 63 63 63 62 62 62 61 60 59 57 55 53 52 51 52
32 32 31 31 32 32 33 34 35 36 36 37 39 40 40 41 42 43 44 45 46 47 48 49 49 49 50 51 52 53 53 54 55 55 55 55 55 55 55 55 56 57 57 57 57 57 57 57 57 57 57 57 58 58 58 58 59 59 60 60 60 60 60 60 60 60 59 59 60 60 60 60 61 61 61 62 62 62 63 63 63 64 64 64 64 64 63 63 62 61 60 58 56 54 53 52 52
32 31 32 33 33 33 34 35 36 37 37 39 40 41 41 42 43 44 46 48 48 49 49 50 51 52 52 53 54 55 55 56 56 55 55 54 54 54 54 55 56 56 56 56 56 56 56 56 56 57 57 58 58 58 59 59 59 60 60 60 60 59 59 59 58 58 58 59 59 59 60 60 61 61 62 62 63 64 64 65 65 65 65 65 65 65 64 64 63 62 61 59 57 56 55 54 53
31 32 33 34 34 35 35 36 37 38 39 40 41 42 42 43 45 46 48 49 50 51 51 52 53 54 54 55 55 56 56 55 55 54 54 54 54 54 55 55 55 55 55 55 55 55 56 56 57 57 57 58 58 58 59 59 59 60 60 59 59 58 58 58 58 58 58 58 59 59 60 61 62 63 63 64 65 65 66 66 67 67 67 67 66 66 66 65 65 64 63 61 59 58 57 56 55
32 34 35 35 36 37 37 38 39 40 41 41 42 43 44 46 47 48 49 50 52 53 53 54 55 55 55 55 54 54 53 53 53 53 54 54 55 55 55 55 55 55 55 55 55 55 56 56 56 57 57 57 58 58 59 59 59 59 59 58 58 57 57 57 57 58 58 59 60 61 62 63 64 65 65 66 66 67 67 68 68 68 68 68 68 68 68 68 67 66 66 64 62 60 59 58 58
35 36 37 37 38 39 39 40 41 42 43 44 44 45 46 49 49 49 50 51 51 53 54 54 55 54 54 53 52 52 52 52 52 53 54 55 55 55 55 55 55 55 55 54 55 55 55 56 56 57 57 58 58 59 60 59 59 58 58 57 57 57 57 57 58 59 59 60 61 63 64 65 66 67 67 68 68 68 69 69 69 70 70 70 70 70 69 69 69 68 67 66 65 63 61 60 60
38 38 39 40 40 41 42 43 43 44 45 45 47 47 47 50 50 50 50 50 50 51 51 52 52 51 51 51 51 51 52 52 53 54 54 55 55 55 55 54 54 54 54 54 54 55 55 56 57 57 58 59 59 60 59 59 58 58 57 58 58 58 58 59 59 60 61 62 63 64 65 66 67 68 69 69 70 70 71 71 71 71 71 70 70 70 70 69 69 68 68 66 66 65 64 63 62
40 41 41 42 42 41 43 44 45 46 46 47 48 49 49 50 50 50 49 48 49 49 49 48 48 49 50 50 51 52 53 53 54 54 54 54 54 53 53 53 53 54 54 55 55 56 56 57 58 59 59 60 60 60 59 58 58 58 58 59 59 60 60 61 62 63 64 65 66 66 67 68 68 69 70 71 71 72 72 72 72 71 71 71 70 70 70 69 69 69 69 68 68 67 67 66 65
40 41 41 42 42 42 44 45 46 47 47 47 48 49 50 50 50 48 47 46 47 47 47 47 48 48 49 50 51 52 53 53 53 53 52 52 52 52 53 53 54 55 56 56 56 57 57 58 59 60 60 60 60 59 59 59 59 59 60 60 61 62 62 63 64 65 66 67 67 68 68 68 69 70 70 71 72 72 73 73 73 73 73 72 72 71 71 71 71 71 71 71 71 70 70 70 70
40 41 41 42 43 44 45 46 47 48 48 48 48 49 49 49 48 47 46 46 47 47 48 48 49 50 51 51 51 51 51 51 50 50 51 51 52 53 54 54 55 55 56 56 56 56 57 58 59 59 59 59 59 59 59 60 60 60 61 62 62 63 64 64 65 65 66 67 67 68 68 68 69 70 70 71 72 73 74 74 75 75 74 74 74 74 73 73 73 74 74 74 74 74 73 72 73
40 42 42 43 44 45 45 46 46 47 47 47 47 47 48 48 47 47 48 48 49 49 50 50 50 50 50 50 49 49 48 49 49 50 50 51 52 52 53 53 54 54 54 54 55 55 56 57 58 59 59 60 60 60 61 61 61 62 63 63 63 64 64 65 65 66 66 66 67 67 68 68 69 70 71 73 74 74 75 75 76 76 76 76 76 76 76 76 76 76 76 76 76 76 75 74 74
41 42 43 43 44 44 44 44 45 45 46 46 47 47 49 49 49 49 49 49 49 49 49 49 48 48 48 47 47 47 47 48 48 48 48 49 49 50 51 51 52 52 53 53 54 55 56 58 59 60 60 61 61 62 62 62 63 63 64 65 65 65 65 66 66 67 67 68 68 69 70 71 72 73 75 76 76 76 77 77 77 77 78 78 78 78 77 77 77 77 77 78 78 78 77 76 76
41 41 42 42 42 43 44 44 45 45 47 47 48 49 49 49 48 47 46 46 46 46 45 45 45 45 46 46 47 47 47 47 47 48 48 48 49 50 50 51 52 53 54 55 56 57 58 59 60 61 61 62 62 62 63 63 64 64 65 65 66 66 67 68 68 69 69 70 70 72 73 74 75 76 77 77 78 78 78 78 79 79 79 79 79 79 79 79 79 79 79 79 79 79 78 77 76
39 40 41 42 43 44 45 45 46 46 46 46 46 47 46 46 45 44 44 44 44 43 44 44 45 46 46 47 47 47 47 48 48 49 50 50 51 51 52 53 53 54 55 56 57 58 58 59 60 61 61 62 62 63 64 64 65 65 66 66 67 68 69 70 71 71 72 72 72 73 74 75 76 76 77 78 78 79 79 79 80 80 80 81 81 80 80 80 80 80 80 79 79 79 79 78 76
40 41 41 42 42 43 43 43 43 43 42 42 42 44 45 44 44 44 44 44 43 44 45 46 46 47 47 47 48 48 49 49 50 51 51 52 52 53 53 54 55 56 56 57 58 58 59 60 60 61 62 63 63 64 65 66 67 67 68 69 70 71 71 72 73 73 74 74 75 75 76 77 77 78 78 78 79 79 80 80 81 81 82 82 82 82 82 81 81 80 79 79 79 79 79 78 77
39 39 39 39 39 39 39 40 41 41 41 41 42 43 44 44 44 45 44 45 45 46 47 47 47 48 48 49 49 50 50 51 51 52 52 52 53 53 54 55 56 56 57 58 58 59 60 60 61 62 62 64 64 65 66 67 68 68 69 70 72 72 73 73 74 75 76 76 77 77 78 79 80 80 80 80 80 80 81 81 82 82 83 83 83 83 83 82 81 81 80 79 79 79 79 79 78
36 36 36 37 37 38 39 40 41 41 41 42 42 43 44 44 44 44 45 46 47 47 47 47 48 49 49 50 50 50 51 51 52 52 52 53 53 54 55 56 56 57 58 58 59 60 60 61 62 63 64 65 66 67 67 68 69 70 71 71 72 73 74 75 76 77 78 79 79 80 80 81 81 82 82 82 82 82 83 83 83 83 83 84 84 84 84 83 82 81 81 80 80 80 79 79 79
35 36 37 37 38 39 40 41 41 42 42 42 43 43 44 45 45 45 46 47 47 47 48 49 49 50 50 50 51 51 51 51 52 52 52 53 53 54 55 55 56 57 58 59 60 61 62 63 64 65 66 67 68 69 69 70 71 72 73 73 74 75 76 77 79 80 81 82 82 82 83 83 84 84 85 85 85 85 85 85 84 84 84 85 85 85 84 84 84 83 83 82 82 81 81 81 81
36 37 38 39 40 41 42 42 42 42 43 43 44 44 45 46 46 46 47 47 47 48 49 50 50 50 50 50 50 50 50 50 51 51 52 52 53 54 55 56 57 58 59 60 62 62 63 64 65 66 67 68 70 71 71 72 73 75 76 77 78 79 80 81 82 83 83 84 84 84 85 86 87 88 88 88 88 88 87 87 87 86 86 86 87 87 86 86 86 86 85 85 84 84 83 83 82
38 40 41 42 43 43 43 43 43 43 44 45 45 45 46 47 46 46 46 47 47 48 49 49 49 49 49 49 49 49 49 50 50 51 52 52 54 55 56 57 58 59 60 61 62 63 64 65 67 68 69 71 72 73 74 75 77 78 79 80 81 82 83 83 84 84 85 85 86 87 88 89 90 90 91 91 91 91 91 90 90 90 89 89 89 89 89 89 88 88 88 87 87 86 85 85 84
41 42 43 45 45 46 46 46 45 45 45 46 46 46 46 45 45 45 45 46 47 48 48 48 48 48 48 48 48 49 49 50 51 51 52 53 55 56 57 58 59 60 62 63 64 65 66 68 69 70 72 73 74 75 77 78 79 81 81 82 83 83 84 84 85 86 87 88 88 89 90 91 91 92 93 93 93 94 93 93 93 92 92 92 92 91 91 91 90 90 89 89 89 88 87 87 86
43 44 45 46 47 48 48 48 48 47 46 46 46 46 45 43 43 43 43 44 45 45 46 46 46 46 47 47 48 49 49 50 51 52 54 55 56 57 59 60 61 62 64 65 66 67 69 70 71 72 74 75 76 77 78 79 80 82 83 84 84 85 86 87 88 89 90 90 91 91 92 93 93 94 94 95 95 95 95 95 95 94 94 94 94 94 93 93 92 92 91 91 90 90 90 89 88
44 45 45 45 46 47 48 48 48 49 49 48 47 45 44 43 43 42 42 43 43 43 44 44 45 45 46 47 48 49 51 52 53 54 56 57 58 60 61 63 64 65 66 67 68 70 71 73 74 75 76 77 78 79 80 81 82 84 86 87 88 89 90 90 91 92 93 93 94 94 95 95 95 96 96 96 96 96 96 96 96 96 96 96 96 96 95 95 94 94 93 92 92 92 91 91 90
44 44 45 45 45 46 46 47 47 49 50 49 47 45 44 44 43 41 41 42 42 43 43 44 45 46 47 49 50 52 53 54 56 57 59 60 62 63 65 66 67 69 70 71 72 73 74 76 77 78 79 80 81 82 83 84 86 87 89 90 91 92 92 93 93 94 95 95 95 96 96 96 96 96 96 96 97 97 97 96 96 96 96 96 96 96 96 96 95 95 94 93 93 93 92 92 92
44 45 45 45 45 46 46 46 46 47 48 47 46 44 43 42 41 40 41 42 43 43 44 46 47 49 50 52 53 55 56 58 59 61 63 64 66 67 69 70 71 73 74 75 76 77 77 79 80 81 82 83 84 86 87 88 89 90 90 91 92 92 93 93 93 94 94 94 95 95 95 95 95 95 95 95 95 95 95 95 94 94 94 94 94 94 94 94 94 94 94 93 93 93 92 91 91
44 45 45 45 46 45 45 45 45 46 46 45 44 43 42 40 40 41 43 44 45 46 48 49 51 52 54 55 57 58 60 62 64 65 67 68 70 71 72 73 75 76 77 77 78 79 80 81 83 84 85 86 87 88 89 90 90 91 91 92 92 92 92 92 92 92 92 92 92 92 92 92 92 92 92 92 92 92 91 91 91 90 90 90 90 90 90 91 91 91 91 91 91 91 91 91 90
45 45 45 45 45 44 44 44 44 45 45 44 43 41 41 40 41 43 45 46 47 49 51 52 54 55 57 59 60 62 64 66 67 69 71 72 73 74 74 75 76 77 78 79 80 82 83 84 85 86 87 88 89 89 90 90 91 91 91 91 91 90 90 90 90 89 89 88 88 87 87 86 86 86 86 86 86 86 86 86 86 86 86 86 86 86 86 86 87 87 88 88 88 89 89 89 89
44 43 43 43 43 43 42 41 40 41 41 42 42 40 40 42 44 45 47 48 50 52 54 56 57 59 61 62 64 65 67 69 70 72 73 74 75 75 76 77 78 80 81 82 83 84 85 85 86 86 87 87 88 88 88 88 88 88 87 87 86 86 85 85 84 84 83 82 82 82 81 81 80 80 80 80 80 80 80 80 81 81 81 81 81 81 82 82 83 83 84 84 85 86 86 86 87
44 43 43 42 42 40 39 37 36 37 38 40 42 41 40 43 46 47 49 51 53 55 57 58 60 62 63 65 67 68 70 71 73 74 75 76 77 78 79 80 80 81 82 83 84 84 84 84 85 85 85 84 84 84 83 83 83 82 82 81 81 80 80 80 79 79 79 79 78 78 78 77 77 77 76 76 76 75 75 75 75 75 76 76 77 77 78 78 79 79 80 81 82 83 83 84 84
44 44 43 42 40 38 36 35 35 36 38 40 43 43 43 45 47 49 51 53 55 57 59 60 62 64 66 68 69 71 73 75 76 76 77 78 78 79 80 80 81 81 82 82 82 82 82 81 81 81 80 80 79 79 78 78 78 78 78 78 78 77 77 77 77 77 77 77 77 76 76 76 76 76 76 75 75 74 74 73 73 73 73 73 74 74 74 75 75 76 76 77 78 79 80 81 82
Wind_Direction
228 229 231 233 237 239 242 245 246 248 248 247 247 247 248 250 251 254 257 258 258 257 257 258 258 259 260 261 261 262 262 262 262 261 260 260 257 255 252 250 248 245 244 245 247 251 256 260 261 261 262 263 265 267 269 270 272 273 274 275 276 277 277 278 278 278 278 278 277 277 277 276 276 276 276 276 276 276 275 275 275 275 274 274 274 274 273 273 273 274 274 274 275 276 277 277 277
229 230 233 236 240 242 243 246 247 249 250 249 249 251 252 254 257 258 258 256 254 255 257 258 259 260 261 262 262 263 263 263 262 261 259 257 253 249 247 247 247 248 250 251 254 257 259 260 260 261 262 265 267 269 270 271 272 273 274 275 276 276 277 278 279 279 279 279 278 278 278 277 276 276 275 275 275 275 274 274 275 275 275 275 274 274 274 274 274 274 274 274 274 275 275 276 276
221 222 228 232 236 239 242 249 250 251 255 254 255 258 262 262 261 259 256 254 253 254 256 258 260 261 262 262 262 262 261 260 258 256 254 252 250 248 247 249 251 253 254 255 256 257 258 258 259 260 263 266 268 269 271 272 273 274 275 275 276 277 278 279 279 279 279 279 279 278 277 276 276 275 274 274 274 274 273 273 273 273 273 274 274 274 274 274 274 275 275 275 275 275 275 275 276
201 203 216 223 231 241 246 257 257 255 257 256 258 260 262 262 258 257 255 255 255 253 254 255 257 258 258 260 260 259 257 255 253 251 250 250 250 251 252 253 254 255 255 255 255 256 256 258 260 262 265 268 269 271 272 273 275 276 276 277 277 278 278 279 279 279 279 278 278 277 276 276 275 274 273 273 273 273 273 272 272 272 272 272 272 272 273 273 274 274 275 275 276 276 276 276 276
183 194 214 224 233 241 246 258 259 256 256 256 258 257 256 257 257 257 256 256 254 252 251 251 252 254 256 258 258 256 254 252 250 250 251 252 253 253 254 255 255 254 254 254 255 256 258 261 263 266 268 270 271 273 274 275 276 277 277 278 278 278 278 278 278 278 278 278 278 277 277 276 275 274 274 273 273 274 274 273 273 272 272 272 272 272 272 273 273 273 274 274 275 275 276 276 277
187 205 221 232 239 245 250 255 256 257 258 259 260 260 260 259 258 259 259 258 257 255 253 251 252 254 256 259 258 255 254 252 251 252 253 254 254 254 254 254 254 254 255 256 258 260 262 265 267 269 271 272 273 274 275 276 277 277 278 278 278 278 278 278 278 278 278 278 278 278 277 276 275 275 275 274 275 274 275 275 274 274 273 273 273 273 273 273 274 274 274 274 274 275 275 276 276
197 220 234 246 254 258 261 263 265 266 263 262 264 266 265 264 263 261 260 260 259 258 256 255 255 256 259 259 258 257 255 254 253 254 255 255 255 254 254 254 255 256 257 259 261 263 266 268 270 271 273 274 275 276 276 277 277 277 278 278 278 278 278 278 278 278 278 278 278 277 277 276 276 276 276 276 276 276 276 275 275 275 274 274 274 274 274 274 275 275 275 275 275 275 275 275 275
218 244 255 264 274 278 278 278 276 273 269 267 270 270 268 268 267 264 262 261 260 259 258 258 258 259 260 259 259 258 256 255 254 255 256 256 256 256 256 257 258 259 261 263 264 266 268 270 271 273 274 275 275 276 277 277 277 278 278 278 278 278 278 278 278 278 278 278 277 277 277 277 277 277 277 277 277 276 276 276 275 275 275 275 275 275 275 275 275 275 275 275 275 275 275 275 275
252 262 268 270 277 283 283 279 277 277 276 273 270 269 269 268 269 268 266 264 263 263 262 261 261 261 262 261 260 257 256 256 256 257 257 258 258 259 260 261 262 263 265 266 267 269 270 271 272 274 274 275 276 276 277 277 277 278 278 278 278 278 278 278 278 278 278 278 278 277 277 277 277 277 277 277 277 276 276 275 275 275 275 275 275 275 275 275 275 275 275 275 276 275 275 275 274
261 264 267 268 272 277 276 275 277 276 277 276 272 270 269 270 270 270 268 267 267 266 265 264 264 264 263 263 262 259 259 259 260 260 260 261 262 262 263 264 265 266 267 268 270 271 272 273 274 274 275 275 276 276 277 277 277 278 278 278 278 278 278 278 278 278 278 278 278 278 278 278 278 278 278 277 277 276 276 275 275 275 275 275 275 275 275 275 275 276 276 276 275 275 275 274 274
268 270 271 272 273 273 273 275 278 277 278 279 277 275 273 272 270 268 267 267 267 265 265 266 267 266 264 265 265 263 263 263 263 263 263 264 265 265 266 267 268 269 270 270 271 272 273 274 274 275 275 276 276 277 277 277 278 278 278 279 279 279 279 279 279 279 279 279 279 279 279 279 279 279 278 277 277 277 276 276 276 276 276 276 276 276 276 276 276 276 276 276 275 275 275 274 274
276 279 280 281 279 277 277 278 279 281 283 280 278 278 277 274 272 270 269 267 266 265 267 267 266 265 265 266 267 267 266 266 266 265 266 266 267 267 268 268 269 270 271 272 273 273 274 275 275 276 276 277 277 278 278 278 279 279 279 279 279 280 280 280 280 280 280 280 280 280 280 280 280 279 279 278 278 277 277 277 277 277 277 276 276 276 276 276 276 276 276 276 275 275 275 274 274
280 283 283 283 283 281 279 278 279 282 282 278 278 281 280 277 275 274 272 270 269 269 270 269 267 266 267 268 268 269 270 269 269 269 269 269 269 269 270 270 271 272 272 273 274 275 276 276 277 277 278 278 279 279 279 279 280 280 280 280 280 280 281 281 281 281 281 281 281 281 281 281 280 280 279 279 278 278 278 278 278 278 277 277 277 277 277 277 277 277 277 276 276 275 275 274 274
281 282 282 283 283 280 279 278 277 280 279 278 281 283 282 280 278 278 277 277 275 275 274 272 271 270 270 270 271 272 273 273 273 273 272 272 272 272 272 273 273 274 275 275 276 277 278 278 278 279 279 279 279 280 280 280 280 281 281 281 281 281 281 281 281 281 281 282 282 282 281 281 280 280 279 279 279 279 279 279 278 278 278 278 278 278 278 278 278 277 277 276 276 275 275 275 274
281 281 282 282 281 279 279 278 277 277 276 278 281 279 279 279 280 281 282 282 282 280 279 278 276 274 273 273 274 275 276 276 276 276 275 275 275 275 275 275 276 277 277 278 278 279 279 279 280 280 280 280 280 281 281 281 281 281 282 281 281 281 281 282 282 282 282 282 282 282 281 281 280 280 279 279 279 279 279 279 279 279 279 279 279 279 278 278 278 278 277 277 276 276 276 275 274
279 279 280 280 279 279 279 278 277 276 275 278 279 278 279 279 280 283 284 284 284 284 283 281 278 277 277 278 278 278 278 278 278 278 278 278 278 278 278 278 279 279 279 279 279 279 280 280 280 280 280 281 282 282 282 282 282 282 282 282 282 281 281 282 282 282 282 282 282 282 281 280 280 280 280 279 279 279 279 279 279 279 279 279 279 279 279 278 278 278 278 277 277 277 276 276 275
278 278 279 279 279 279 280 280 279 277 277 278 278 279 281 282 284 285 286 286 285 285 283 280 278 281 284 283 281 280 280 280 280 280 280 280 280 280 280 280 280 280 280 280 280 280 281 281 281 281 282 283 283 282 282 282 282 282 282 282 282 282 282 282 282 282 282 282 282 281 281 280 280 280 280 279 279 279 279 279 279 279 279 279 279 279 279 279 279 278 278 278 278 277 277 276 276
279 280 280 279 280 281 281 282 281 280 279 279 281 282 283 286 287 288 287 287 287 286 283 280 282 286 287 285 282 282 282 282 281 282 282 282 281 281 281 280 280 280 281 281 281 281 281 281 282 283 284 283 283 283 283 283 282 282 282 282 282 282 282 283 283 283 282 282 281 281 280 280 280 280 279 279 279 279 279 279 279 279 279 279 279 279 279 279 279 279 279 279 278 278 277 277 276
282 283 282 282 282 283 283 284 283 282 281 282 284 285 286 287 288 288 288 288 287 285 282 282 287 288 285 282 282 283 283 282 282 282 282 282 282 282 281 281 281 281 282 282 282 282 282 283 284 284 284 283 283 283 283 282 282 282 282 282 282 282 283 283 283 283 282 282 281 281 280 280 280 280 279 279 279 279 279 279 279 280 280 280 280 280 280 280 280 280 279 279 278 277 277 276 275
283 283 283 283 283 283 284 284 284 283 283 283 285 285 286 286 286 287 286 286 284 281 281 284 287 284 281 281 281 282 281 281 282 282 283 282 282 282 282 283 283 283 283 283 283 283 284 285 285 284 284 283 283 283 282 282 281 282 282 282 282 283 283 283 283 282 282 282 281 281 281 281 280 280 280 280 280 280 280 280 280 280 280 280 280 280 280 280 280 280 279 279 278 277 276 275 273
283 283 283 283 284 284 284 285 285 284 284 284 285 285 285 285 285 285 284 283 280 279 281 283 282 280 280 281 281 281 281 282 283 283 283 283 283 284 284 284 284 284 284 284 285 286 286 285 285 284 284 283 282 282 281 281 281 281 282 282 282 283 283 283 283 282 282 282 282 282 282 281 281 281 280 280 280 280 280 280 281 281 281 280 280 280 280 280 280 280 279 278 277 276 275 274 272
284 285 285 285 285 286 286 287 286 286 286 286 285 285 284 285 284 284 283 280 278 279 281 281 280 280 280 281 281 282 282 283 283 283 283 284 284 285 285 285 285 285 286 286 286 286 286 285 285 284 283 282 282 281 281 281 282 282 282 283 283 283 283 283 283 283 283 283 283 282 282 281 281 280 280 280 280 280 280 281 281 281 280 280 280 280 280 280 279 279 278 278 277 276 275 273 271
285 286 286 286 286 286 287 287 286 286 285 285 284 284 284 283 283 282 281 279 279 280 281 282 282 282 282 282 282 283 283 283 283 284 284 285 285 285 285 286 286 287 287 287 287 286 286 285 285 284 283 282 282 282 282 282 283 283 284 284 284 284 283 283 283 283 283 282 282 281 280 280 280 280 280 280 280 280 280 280 280 280 280 280 280 280 280 280 279 278 278 277 277 276 274 272 270
285 285 284 285 285 285 285 285 285 285 285 285 285 285 284 284 283 282 281 280 280 281 282 284 284 283 284 284 284 284 284 284 285 285 285 285 285 286 286 287 287 287 287 287 286 286 286 285 285 284 283 283 283 283 283 283 284 284 284 284 284 283 283 283 282 282 281 280 280 280 279 279 279 279 279 279 279 279 279 279 279 279 279 279 279 279 279 279 279 278 278 277 276 275 274 272 269
284 284 284 285 285 286 286 286 286 286 286 286 286 286 285 285 284 283 283 281 282 284 285 285 284 284 284 285 286 286 286 286 286 286 286 286 287 287 287 287 287 287 286 286 286 286 285 285 284 283 283 283 283 284 284 284 284 284 284 283 283 282 282 281 280 280 280 279 279 279 279 279 279 278 278 278 278 278 278 278 278 278 278 279 279 279 279 279 279 278 278 277 276 275 273 271 268
285 284 285 286 286 287 287 287 287 287 286 287 287 287 287 286 286 285 283 283 285 287 286 285 285 285 286 287 287 287 287 287 287 287 287 287 287 287 287 286 286 286 286 286 285 285 285 284 284 283 283 284 284 284 284 284 284 283 283 282 282 281 280 280 279 279 279 279 278 278 278 278 278 277 277 277 277 277 277 277 278 278 278 278 278 279 279 278 278 278 278 277 277 275 273 271 267
286 286 286 287 287 287 287 287 287 287 287 287 288 287 287 287 286 285 284 285 287 287 285 285 286 287 288 288 288 288 288 288 287 288 288 288 288 287 287 287 286 286 285 285 285 285 284 284 284 284 284 284 284 284 284 284 283 282 282 281 280 280 279 279 279 278 278 278 278 278 278 277 277 277 277 276 276 276 276 277 277 277 277 278 278 278 278 279 279 278 278 278 277 276 274 270 266
287 286 287 287 288 288 287 287 286 286 287 287 287 287 287 287 286 286 286 287 286 285 284 285 286 288 288 288 288 288 288 288 288 288 289 288 288 288 288 287 286 285 285 285 285 285 284 284 284 284 284 284 284 284 283 282 282 281 280 280 279 279 279 279 279 279 278 278 278 278 278 277 277 277 276 276 276 276 276 277 277 277 278 278 278 278 278 279 279 278 278 278 277 275 273 270 266
287 286 287 288 288 287 286 286 286 286 286 286 286 286 286 286 286 286 287 286 285 285 286 287 288 288 288 288 288 288 288 289 289 289 289 289 288 288 287 287 286 286 286 286 286 286 286 286 285 285 285 284 284 283 282 281 281 280 280 280 279 279 279 279 279 279 279 279 278 278 278 277 277 277 277 277 277 277 277 277 278 278 278 278 278 278 278 278 278 277 277 276 276 274 272 270 266
286 287 288 287 286 286 286 285 285 285 286 286 286 286 286 287 287 288 287 286 286 287 288 288 289 289 289 288 288 289 289 289 289 289 289 288 288 288 287 287 287 287 287 287 287 287 287 286 286 285 284 283 283 282 281 280 280 280 280 280 280 280 279 279 279 279 279 278 278 277 277 277 277 277 277 277 277 277 277 277 277 277 277 277 277 277 277 277 276 276 275 275 274 273 271 269 266
287 288 287 285 284 284 284 284 285 285 286 286 286 286 287 288 288 288 287 287 288 289 289 289 289 289 289 289 289 289 289 289 289 289 289 288 288 288 288 288 288 288 288 288 288 287 286 285 284 283 283 282 282 281 281 280 280 280 280 280 280 279 279 279 278 278 278 277 277 277 276 277 277 276 276 276 276 276 276 276 276 276 276 276 276 276 276 276 276 275 274 273 273 272 271 269 266
288 287 285 285 285 285 285 285 285 286 286 286 287 288 289 289 288 288 288 290 290 290 290 290 290 289 289 289 289 289 289 289 289 289 288 288 288 289 289 289 289 289 288 288 286 285 285 284 283 283 283 282 281 281 280 280 280 280 280 280 279 279 278 278 277 277 277 276 276 276 276 276 276 276 276 275 275 276 276 276 276 276 276 276 276 276 276 275 275 275 274 273 272 271 270 268 266
287 286 286 287 287 287 287 287 287 286 287 287 288 289 290 289 288 289 290 291 291 291 291 290 290 290 290 290 290 290 290 290 289 289 289 289 290 290 290 289 289 288 287 286 285 285 284 284 283 283 282 281 280 280 280 280 280 280 279 279 278 278 277 277 276 276 276 275 275 275 275 275 275 275 275 275 275 276 276 276 276 276 276 276 276 276 275 275 275 274 274 273 272 270 269 267 266
287 287 288 288 288 288 288 288 287 288 288 289 289 290 290 289 289 290 290 290 290 291 291 290 290 291 291 291 291 290 290 290 290 290 290 290 290 290 290 289 288 287 286 285 284 284 283 283 282 281 280 280 280 280 280 280 280 279 278 278 277 276 276 275 275 274 274 274 274 275 275 275 275 275 275 275 275 276 276 276 276 276 276 276 275 275 274 274 274 273 273 272 271 270 268 266 265
288 289 289 289 289 289 289 288 288 289 289 290 290 290 290 289 290 291 290 290 290 291 291 291 292 291 291 291 291 291 290 291 291 291 291 291 290 290 289 288 287 286 285 284 283 283 282 281 280 280 279 279 279 280 279 279 278 277 277 276 275 275 274 274 273 273 273 273 274 274 274 274 275 275 275 275 275 275 275 275 275 275 275 275 274 274 274 273 273 272 272 271 270 269 268 266 264
290 291 291 290 290 289 289 289 289 290 290 290 291 291 290 290 291 292 292 292 291 291 292 292 292 291 291 291 291 291 291 291 291 291 291 290 290 289 288 286 285 284 283 283 282 282 281 280 279 278 278 278 278 278 278 277 276 276 275 274 274 274 274 274 273 273 273 273 273 273 274 274 274 275 275 275 275 275 275 276 276 276 275 275 274 274 274 273 273 272 271 271 270 269 269 268 266
291 291 291 291 291 290 290 291 291 291 291 292 292 292 291 291 292 293 294 293 292 292 291 291 291 291 291 291 291 292 292 291 291 291 290 289 288 287 285 285 284 283 283 282 281 280 279 278 277 277 277 277 277 277 276 276 275 275 274 274 274 274 274 274 274 274 274 274 274 274 274 275 275 275 276 276 276 276 276 276 276 276 276 275 275 275 274 274 273 273 272 272 271 270 270 270 268
291 291 291 292 292 291 292 292 292 292 293 293 292 292 292 292 292 293 293 293 293 292 292 291 291 292 292 292 292 291 291 291 290 289 288 287 285 284 284 283 283 282 282 281 279 278 277 276 276 276 276 277 277 277 276 276 275 275 275 275 275 275 275 275 275 275 276 276 276 277 277 277 277 277 277 277 276 276 276 276 276 276 276 276 275 275 275 274 274 274 273 272 272 271 270 270 269
292 292 292 292 292 293 293 293 293 293 293 293 293 293 292 293 293 293 293 294 294 293 293 293 293 293 293 292 292 292 291 289 288 287 286 285 284 284 283 282 282 281 280 279 278 277 277 276 276 276 277 277 277 277 277 276 276 276 275 275 275 275 275 275 276 276 276 277 277 277 277 277 276 276 275 275 274 274 274 275 275 276 276 276 275 275 275 275 274 274 273 272 272 271 271 271 270
294 294 294 294 294 294 294 294 294 294 294 294 293 293 293 294 294 295 295 295 294 294 294 294 294 294 293 293 293 292 291 289 288 287 286 286 285 284 284 283 282 281 280 279 278 278 277 277 277 277 277 277 277 277 277 277 276 276 276 276 275 275 275 275 275 275 275 275 275 275 274 274 273 273 273 273 273 273 274 274 274 274 274 274 274 274 274 274 273 273 272 272 271 271 271 270 270
296 296 296 296 296 296 296 295 295 295 296 296 296 295 295 296 297 297 297 296 296 296 296 296 296 295 295 294 294 293 292 291 290 289 288 287 286 285 285 284 283 282 281 280 279 279 278 278 278 278 278 278 278 278 277 277 277 276 276 276 276 276 275 275 274 274 274 274 275 275 275 275 275 275 275 275 275 275 275 275 275 274 274 275 274 274 274 274 273 273 272 271 271 270 270 269 269
297 297 297 298 298 298 298 298 298 298 298 299 299 298 298 299 300 300 299 299 299 299 298 297 297 297 296 295 294 293 292 291 291 290 289 288 287 286 285 284 283 282 282 281 281 280 280 280 280 280 280 279 279 278 278 277 276 276 275 275 275 274 274 274 274 274 274 275 275 276 276 277 277 277 276 276 276 276 276 276 276 276 276 276 276 275 275 274 273 273 272 271 271 270 269 269 268
299 299 300 300 300 301 301 301 301 301 302 303 302 302 302 303 303 302 302 301 300 299 298 298 297 297 296 295 294 293 292 292 291 290 289 289 288 287 286 285 285 284 284 284 283 283 282 282 281 281 280 280 279 279 278 277 277 276 276 276 275 275 275 275 275 275 275 275 276 276 276 277 277 277 276 276 276 276 276 276 276 276 276 276 276 275 275 274 274 273 273 272 271 270 270 269 267
302 303 304 304 304 305 305 305 305 305 306 305 304 303 304 303 303 302 301 300 299 298 298 298 297 297 296 295 294 294 293 293 292 291 291 291 290 289 288 288 288 287 287 286 286 285 285 284 284 283 283 282 282 281 281 281 280 280 279 279 279 279 278 278 278 278 278 278 278 278 278 278 278 278 277 277 276 276 276 276 276 276 276 276 276 276 275 275 275 275 274 273 272 271 270 269 268
308 308 308 308 308 308 307 307 306 306 306 305 304 303 302 301 301 300 300 299 299 299 299 299 298 297 297 296 296 296 295 294 294 294 293 293 292 291 291 291 290 290 290 289 289 288 288 288 288 287 287 287 286 286 285 285 285 284 284 283 282 282 282 281 281 281 281 281 281 280 280 280 280 279 279 279 278 278 277 277 276 276 277 277 277 276 276 276 276 275 275 275 274 273 272 271 270
311 310 310 309 308 307 306 306 305 305 304 303 302 302 301 301 301 301 301 300 301 301 301 300 300 299 299 298 298 297 297 296 296 295 295 294 294 293 293 292 292 291 291 291 291 291 291 290 290 290 289 289 288 288 287 287 286 286 285 284 284 283 283 282 282 282 282 282 281 281 281 281 280 280 280 280 279 279 278 278 277 277 277 277 277 277 277 276 276 276 275 275 274 274 273 272 271
311 310 309 308 306 306 305 305 304 304 303 303 302 302 303 303 304 304 304 304 304 303 303 302 302 301 301 300 300 299 299 298 297 297 296 295 295 294 293 293 292 292 292 292 292 292 291 291 290 290 289 288 288 287 287 286 285 285 284 284 283 283 282 282 282 281 281 281 281 281 281 280 280 280 280 280 280 279 279 278 278 277 277 277 277 276 276 276 276 276 275 275 274 274 273 272 272
311 309 308 307 306 306 305 304 304 304 304 304 305 306 307 308 308 307 306 306 305 304 304 303 302 302 302 302 301 301 300 299 298 297 296 296 295 294 294 293 292 292 292 292 291 291 290 289 289 288 288 287 287 286 286 285 284 284 283 283 282 282 282 281 281 281 280 280 280 280 280 280 280 280 280 280 279 279 279 278 278 277 277 276 276 276 275 275 275 274 274 274 274 273 272 272 271
310 309 308 307 306 306 305 305 305 306 306 307 308 309 309 310 310 308 308 307 306 305 304 304 304 305 304 304 303 302 301 300 299 298 297 296 295 294 294 293 292 292 292 292 291 290 290 289 288 288 287 286 286 285 284 284 283 283 282 282 282 282 282 281 281 280 280 279 279 279 279 279 279 279 279 279 279 279 279 278 278 277 277 277 276 276 275 275 274 274 273 273 273 272 272 271 270
309 309 308 308 308 308 308 308 308 309 309 310 311 311 311 311 310 310 309 308 307 306 306 307 307 307 306 305 304 303 303 302 301 300 299 298 297 296 295 294 294 294 293 292 292 291 290 289 288 287 287 286 286 285 285 285 284 284 284 284 283 283 282 282 281 281 281 280 280 280 279 279 279 279 279 279 279 279 278 278 278 278 277 277 276 276 275 275 274 274 273 273 272 272 271 271 270
310 310 310 311 311 311 311 311 311 311 311 311 312 313 313 312 312 313 312 310 309 309 310 310 309 309 308 307 306 306 305 303 302 301 300 299 298 297 296 296 296 295 294 294 293 292 291 290 289 289 288 288 288 288 287 287 286 285 285 284 283 283 283 282 282 282 281 281 281 281 280 280 280 279 279 279 279 278 278 278 278 277 277 276 276 276 275 275 274 273 273 272 272 272 271 271 270
313 313 313 313 313 313 313 312 312 311 310 311 313 314 314 314 316 316 314 312 313 313 313 312 311 311 310 309 308 307 306 305 304 303 302 301 300 299 299 298 297 296 296 295 294 293 292 291 291 290 290 289 289 288 287 286 285 284 283 283 283 283 283 283 282 282 282 281 281 281 281 280 280 280 280 279 279 279 279 278 278 278 277 276 276 276 275 275 274 273 273 272 272 271 270 270 270
314 315 314 313 313 313 313 312 312 312 312 312 314 315 317 317 318 317 315 315 316 316 316 314 313 312 312 311 310 309 308 307 305 304 303 302 302 301 300 299 298 297 296 296 295 294 293 292 291 290 289 288 287 286 286 285 284 284 284 284 284 284 284 284 284 284 284 284 283 283 283 282 282 281 281 281 280 280 279 279 278 278 277 277 276 275 275 274 274 273 273 272 271 270 270 269 269
315 315 314 314 314 314 315 315 315 315 315 316 317 319 321 322 321 319 318 319 319 317 316 315 314 313 313 312 311 310 309 307 306 305 304 304 303 302 301 299 298 297 296 295 294 293 292 291 290 289 289 288 288 288 287 287 287 287 287 287 287 286 286 286 286 286 286 286 286 285 285 284 284 283 282 282 281 280 280 279 279 278 277 276 276 275 274 273 273 272 271 271 270 269 269 268 267
316 316 316 315 316 317 318 319 320 320 320 320 320 323 325 324 322 321 321 320 319 318 317 316 315 314 313 312 311 310 309 308 307 306 305 304 303 301 300 298 297 296 295 294 293 292 292 291 291 291 290 290 290 290 290 289 289 289 289 288 288 288 288 288 288 287 287 287 287 286 286 285 284 284 283 282 282 281 280 279 279 278 277 276 275 274 274 273 272 271 270 270 269 268 268 267 266
317 317 318 318 319 321 323 325 326 326 326 324 324 326 327 324 323 323 322 321 320 319 318 317 316 315 314 313 312 311 309 308 307 306 304 303 301 300 299 298 297 296 295 294 294 293 293 293 292 292 291 291 291 291 291 291 291 291 290 290 290 290 289 289 289 288 288 287 287 286 285 285 284 284 283 282 282 281 280 279 278 277 277 276 275 274 273 272 271 271 270 269 268 267 267 266 266
318 319 320 321 324 326 328 329 330 330 330 328 326 328 329 325 323 323 322 321 320 319 318 317 317 316 315 314 312 310 309 307 306 305 304 303 302 300 299 298 297 296 296 295 295 294 294 294 293 293 293 293 293 293 293 293 293 293 292 292 292 291 291 290 290 289 288 288 287 286 286 285 285 284 283 283 282 281 280 279 279 278 277 276 275 274 273 272 271 271 270 269 268 267 266 265 265
321 322 324 326 328 330 331 331 332 332 331 329 328 329 328 325 323 323 322 321 321 320 319 318 317 316 315 313 311 310 309 308 307 306 304 303 301 300 299 298 297 297 296 296 296 296 296 296 296 296 295 295 295 295 295 295 294 294 293 293 293 292 292 291 291 290 289 289 288 287 287 286 286 285 285 284 283 283 282 281 280 279 278 277 276 275 274 273 272 271 270 269 268 267 266 265 265